Kuchera_Ratio
0.0 0.0 0.0 0.0 0.0 0.0 0.0 0.0 0.0 0.0 0.0 0.0 0.0 0.0 0.0 0.0 0.0 0.0 0.0 0.0 0.0 0.0 0.0 0.0 0.0 0.0 0.0 0.0 0.0 0.0 0.0 0.0 0.0 0.0 0.0 0.0 0.0 0.0 0.0 0.0 0.0 0.0 0.0 0.0 0.0 0.0 0.0
0.0 0.0 0.0 0.0 0.0 0.0 0.0 0.0 0.0 0.0 0.0 0.0 0.0 0.0 0.0 0.0 0.0 0.0 0.0 0.0 0.0 0.0 0.0 0.0 0.0 0.0 0.0 0.5 0.0 0.0 0.0 0.0 0.0 0.0 0.0 0.0 0.0 0.0 0.0 0.0 0.0 0.0 0.0 0.0 0.0 0.0 0.0
0.0 0.0 0.0 0.0 0.0 0.0 0.0 0.0 0.0 0.0 0.0 0.0 0.0 0.0 0.0 0.0 0.0 0.0 0.0 0.0 0.0 0.0 0.0 0.0 0.0 0.0 0.0 0.0 0.0 0.0 0.0 0.0 0.0 0.0 0.0 0.0 0.0 0.0 0.0 0.0 0.0 0.0 0.0 0.0 0.0 0.0 0.0
0.0 0.0 0.0 0.0 0.0 0.0 0.0 0.0 0.0 0.0 0.0 0.0 0.0 0.0 0.0 0.0 0.0 0.0 0.0 0.0 0.0 0.0 0.0 0.0 0.0 0.0 1.0 0.0 0.0 0.0 0.0 0.0 0.0 0.0 0.0 0.0 0.0 0.0 0.0 0.0 0.0 0.0 0.0 0.0 0.0 0.0 0.0
0.0 0.0 0.0 0.0 0.0 0.0 0.0 0.0 0.0 0.0 0.0 0.0 0.0 0.0 0.0 0.0 0.0 0.0 0.0 0.0 0.0 0.0 0.0 0.0 0.0 0.0 4.8 0.0 0.0 0.0 0.0 0.0 0.0 0.0 0.0 0.0 0.0 0.0 0.0 0.0 0.0 0.0 0.0 0.0 0.0 0.0 0.0
0.0 0.0 0.0 0.0 0.0 0.0 0.0 0.0 0.0 0.0 0.0 0.0 0.0 0.0 0.0 0.0 0.0 0.0 0.0 0.0 0.0 0.0 0.0 0.0 0.0 1.6 0.0 0.0 0.0 0.0 0.0 0.0 0.0 0.0 0.0 0.0 0.0 0.0 0.0 0.0 3.6 0.0 0.0 0.0 0.0 0.0 0.0
0.0 0.0 0.0 0.0 0.0 0.0 0.0 0.0 0.0 0.0 0.0 0.0 0.0 0.0 0.0 0.0 0.0 0.0 0.0 0.0 0.0 0.0 0.0 0.0 0.0 0.0 0.0 0.0 0.0 0.0 0.0 0.0 0.0 0.0 0.0 0.0 0.0 0.4 0.0 0.0 0.0 0.0 0.0 0.0 0.0 0.0 0.0
0.0 0.0 0.0 0.0 0.0 0.0 0.0 0.0 0.0 0.0 0.0 0.0 0.0 0.0 0.0 0.0 0.0 0.0 0.0 0.0 0.0 0.0 5.0 0.0 0.0 0.0 0.0 0.0 0.0 0.0 0.0 0.0 0.0 0.0 0.0 0.0 0.0 0.0 0.0 0.0 0.0 0.0 0.0 0.0 0.0 0.0 0.0
0.0 0.0 0.0 0.0 0.0 0.0 0.0 0.0 0.0 0.0 0.0 0.0 0.0 0.0 0.0 0.0 0.0 0.0 0.0 0.0 0.0 0.0 4.2 0.0 0.0 0.0 0.0 0.0 0.0 0.0 0.0 0.0 0.0 0.0 0.0 0.0 0.0 0.0 0.0 0.0 0.0 0.0 0.0 0.0 0.0 0.0 0.0
0.0 0.0 0.0 0.0 0.0 0.0 0.0 0.0 0.0 0.0 0.0 0.0 0.0 0.0 0.0 0.0 0.0 0.0 0.0 0.0 0.0 0.0 13.8 6.2 0.0 0.0 0.0 0.0 0.0 0.0 0.0 0.0 0.0 0.0 0.0 0.0 0.0 0.0 0.0 0.0 0.0 0.0 0.0 0.0 0.0 0.0 5.0
0.0 0.0 0.0 0.0 0.0 0.0 0.0 0.0 0.0 0.0 0.0 0.0 0.0 0.0 0.0 0.0 0.0 0.0 0.0 0.0 0.0 0.0 21.4 4.8 0.0 0.0 0.0 0.0 0.0 0.0 0.0 0.0 0.0 0.0 0.0 0.0 0.0 0.0 0.0 0.0 0.0 0.0 0.0 0.0 0.0 0.0 0.0
0.0 0.0 0.0 0.0 0.0 0.0 0.0 0.0 0.0 0.0 0.0 0.0 0.0 0.0 0.0 0.0 0.0 0.0 0.0 0.0 0.0 15.6 22.8 7.8 0.0 0.0 1.6 0.0 0.0 0.0 0.0 0.0 0.0 0.0 0.0 0.0 0.0 0.0 0.0 0.0 0.0 0.0 0.0 0.0 0.0 0.0 8.7
0.0 0.0 0.0 0.0 0.0 0.0 0.0 0.0 0.0 0.0 0.0 0.0 0.0 0.0 0.0 0.0 0.0 0.0 0.0 0.0 15.8 19.4 6.8 7.8 4.8 0.0 1.0 3.8 1.4 3.4 4.0 7.6 11.8 11.0 8.0 0.0 0.0 0.0 0.0 0.0 0.0 0.0 0.0 7.2 10.2 11.0 11.0
0.0 0.0 0.0 0.0 0.0 0.0 0.0 0.0 0.0 0.0 0.0 0.0 0.0 0.0 0.0 0.0 0.0 0.0 0.0 11.2 18.7 15.8 12.6 0.8 2.2 1.2 8.2 2.0 3.4 6.6 9.0 10.2 6.0 8.4 8.8 9.4 8.4 0.0 0.0 0.0 0.0 0.0 0.0 5.6 13.6 12.8 8.2
0.0 0.0 0.0 0.0 0.0 0.0 0.0 0.0 0.0 0.0 0.0 0.0 0.0 0.0 0.0 0.0 0.0 0.0 6.4 15.0 16.3 13.3 5.8 7.8 5.6 11.6 10.6 4.0 5.2 6.0 12.2 12.3 9.2 5.8 13.7 13.2 10.4 0.0 0.0 0.0 0.0 0.0 2.6 0.0 3.2 1.8 9.9
0.0 0.0 0.0 0.0 0.0 0.0 0.0 0.0 0.0 0.0 0.0 0.0 0.0 0.0 0.0 0.0 0.0 0.0 11.7 15.7 14.3 6.0 3.6 6.6 13.0 9.4 13.3 12.2 12.1 11.0 9.0 8.0 8.8 1.6 0.5 10.2 15.4 2.2 0.0 0.0 0.0 0.0 0.0 3.6 3.8 13.7 14.5
0.0 0.0 0.0 0.0 0.0 0.0 0.0 0.0 0.0 0.0 0.0 0.0 0.0 6.0 0.0 0.0 0.0 5.6 15.7 15.9 10.4 1.0 2.0 8.6 12.0 12.2 11.8 12.9 12.7 14.2 11.0 3.0 1.8 1.6 0.2 7.6 13.6 12.4 2.4 5.8 9.0 0.0 0.0 0.0 2.0 5.0 10.4
0.0 0.0 0.0 0.0 0.0 0.0 0.0 0.0 0.0 0.0 0.0 0.0 2.9 12.2 0.0 0.0 10.5 13.4 13.2 12.1 2.4 4.7 2.4 6.4 7.2 9.0 10.2 11.0 12.4 12.3 12.9 5.8 0.0 0.0 8.2 7.8 13.3 15.7 11.8 0.0 0.0 4.8 8.8 10.4 12.4 10.4 11.2
0.0 0.0 0.0 0.0 0.0 0.0 0.0 0.0 0.0 0.0 0.0 0.0 8.4 8.8 0.0 0.0 15.5 14.2 13.8 13.3 8.8 8.4 8.0 7.6 9.0 7.2 8.8 11.4 15.6 11.3 8.6 0.0 0.3 3.8 7.9 8.0 15.6 18.5 14.6 10.4 4.0 10.8 10.0 9.8 11.0 11.2 13.9
0.0 0.0 0.0 0.0 0.0 0.0 0.0 0.0 0.0 0.0 0.0 0.0 8.6 12.9 7.9 8.0 10.9 13.8 14.4 13.7 13.1 4.8 6.3 4.7 7.6 4.3 10.0 12.5 9.8 15.0 10.6 3.6 0.7 1.4 0.0 0.9 14.0 15.0 19.0 14.7 9.6 12.3 9.6 7.8 12.4 15.7 15.8
0.0 0.0 0.0 0.0 0.0 0.0 0.0 0.0 0.0 0.0 0.0 0.0 9.1 13.4 13.2 13.7 13.8 13.8 12.2 12.1 13.4 13.3 6.5 5.6 9.0 9.0 10.8 14.8 15.4 14.2 10.4 8.0 2.8 0.2 3.8 8.9 15.6 12.3 11.4 9.6 8.8 11.2 11.6 9.4 12.0 11.6 15.1
0.0 0.0 0.0 0.0 0.0 0.0 0.0 0.0 0.0 0.0 0.0 0.6 9.4 11.5 11.0 12.1 10.6 13.0 12.8 14.4 13.0 11.0 10.4 11.4 12.5 9.0 10.6 13.4 11.2 14.8 11.6 11.4 11.8 7.2 9.4 9.6 15.4 12.6 15.1 9.2 9.4 12.4 10.0 9.8 10.6 9.8 7.8
0.0 0.0 0.0 0.0 0.0 0.0 0.0 0.0 0.0 0.0 0.0 3.6 6.2 6.6 9.1 12.2 12.7 14.5 14.3 12.6 11.4 7.5 7.3 6.2 6.6 12.6 12.6 9.8 5.9 5.4 5.6 5.4 6.1 10.8 12.0 12.9 14.3 16.2 18.1 11.0 12.2 17.8 12.0 9.8 8.6 6.0 6.2
0.0 0.0 0.0 0.0 0.0 0.0 0.0 0.0 0.0 0.0 0.0 0.0 3.5 5.1 11.4 15.2 14.4 13.4 10.2 9.5 10.0 8.5 11.6 6.6 7.4 11.2 5.8 0.0 1.8 5.2 7.6 8.6 8.4 8.4 6.8 13.6 14.3 14.3 18.9 15.4 21.6 12.0 4.0 2.4 6.4 4.8 2.8
0.0 0.0 0.0 0.0 0.0 0.0 0.0 0.0 0.0 0.0 0.0 0.0 0.1 1.0 6.8 14.8 12.5 11.7 10.6 10.8 9.2 8.8 10.4 9.4 5.6 2.2 0.0 7.5 13.1 16.7 15.5 15.4 13.4 10.9 10.0 7.2 12.5 16.2 18.9 19.6 15.0 11.6 7.0 10.0 10.6 9.0 0.6
0.0 0.0 0.0 0.0 0.0 0.0 0.0 0.0 0.0 0.0 0.0 0.0 0.2 0.0 2.6 11.2 13.8 7.2 10.7 10.1 13.8 15.0 14.9 10.8 2.6 0.0 2.9 13.5 13.1 18.3 20.3 15.6 16.5 14.1 9.6 10.2 9.8 14.7 20.2 20.7 23.4 12.3 3.5 0.0 2.4 14.9 0.0
0.0 0.0 0.0 0.0 0.0 0.0 0.0 0.0 0.0 0.0 0.0 0.0 0.0 0.0 3.9 10.2 7.6 8.4 12.9 13.4 10.6 13.2 14.4 12.1 9.0 8.5 7.5 13.8 18.1 17.8 19.3 12.4 16.1 15.5 15.3 14.9 14.5 16.5 17.1 18.1 15.3 5.9 0.8 0.0 16.4 13.3 0.0
0.0 0.0 0.0 0.0 0.0 0.0 0.0 0.0 0.0 0.0 0.0 0.0 0.0 0.0 0.7 8.2 5.7 1.4 4.4 11.0 11.8 10.8 13.4 10.3 12.4 13.6 14.6 18.2 17.7 16.7 17.6 15.3 14.7 12.0 12.5 14.3 16.5 19.4 16.1 17.6 19.0 0.0 4.6 10.4 3.2 0.0 0.0
0.0 0.0 0.0 0.0 0.0 0.0 0.0 0.0 0.0 0.0 0.0 0.0 2.2 0.0 0.0 4.6 7.0 0.4 0.1 0.0 0.2 1.0 8.6 8.6 10.1 12.1 11.5 13.0 13.8 14.1 16.6 15.2 14.2 17.9 9.4 14.9 11.4 14.7 13.8 14.3 5.4 0.0 0.2 0.0 0.0 0.0 0.0